Time,TemperatureF,DewpointF,PressureIn,WindDirection,WindDirectionDegrees,WindSpeedMPH,WindSpeedGustMPH,Humidity,HourlyPrecipIn,Conditions,Clouds,dailyrainin,SoftwareType,DateUTC
2013-01-30 00:14:00,23.5,22.0,32.22,ENE,73,2.0,5.0,93,0.00,,,0.01,weatherlink.com 1.10,2013-01-30 07:14:00,
2013-01-30 00:29:00,23.7,22.0,32.21,ESE,120,4.0,7.0,93,0.00,,,0.01,weatherlink.com 1.10,2013-01-30 07:29:00,
2013-01-30 00:44:00,23.8,22.0,32.22,NNE,29,3.0,7.0,94,0.00,,,0.01,weatherlink.com 1.10,2013-01-30 07:44:00,
2013-01-30 00:59:00,24.3,23.0,32.21,ENE,76,4.0,7.0,93,0.00,,,0.01,weatherlink.com 1.10,2013-01-30 07:59:00,
2013-01-30 01:14:00,24.6,23.0,32.20,ENE,76,4.0,5.0,93,0.00,,,0.01,weatherlink.com 1.10,2013-01-30 08:14:00,
2013-01-30 01:29:00,25.0,23.0,32.21,NE,50,4.0,10.0,93,0.00,,,0.01,weatherlink.com 1.10,2013-01-30 08:29:00,
2013-01-30 01:44:00,25.7,24.0,32.21,NW,314,7.0,7.0,92,0.00,,,0.01,weatherlink.com 1.10,2013-01-30 08:44:00,
2013-01-30 01:59:00,27.0,25.0,32.21,WNW,300,10.0,12.0,90,0.00,,,0.01,weatherlink.com 1.10,2013-01-30 08:59:00,
2013-01-30 02:14:00,27.0,25.0,32.20,SSW,198,3.0,9.0,90,0.00,,,0.01,weatherlink.com 1.10,2013-01-30 09:14:00,
2013-01-30 02:29:00,27.2,25.0,32.20,ENE,64,4.0,12.0,90,0.00,,,0.01,weatherlink.com 1.10,2013-01-30 09:29:00,
2013-01-30 02:44:00,27.3,25.0,32.19,East,87,3.0,7.0,90,0.00,,,0.01,weatherlink.com 1.10,2013-01-30 09:44:00,
2013-01-30 03:00:00,27.2,25.0,32.20,WSW,257,4.0,8.0,90,0.00,,,0.01,weatherlink.com 1.10,2013-01-30 10:00:00,
2013-01-30 03:15:00,27.8,25.0,32.20,ESE,114,4.0,7.0,89,0.00,,,0.01,weatherlink.com 1.10,2013-01-30 10:15:00,
2013-01-30 03:30:00,27.6,25.0,32.18,East,87,2.0,10.0,89,0.00,,,0.01,weatherlink.com 1.10,2013-01-30 10:30:00,
2013-01-30 03:45:00,28.1,25.0,32.18,SE,142,8.0,13.0,88,0.00,,,0.01,weatherlink.com 1.10,2013-01-30 10:45:00,
2013-01-30 04:00:00,27.4,25.0,32.16,NE,47,4.0,11.0,89,0.00,,,0.01,weatherlink.com 1.10,2013-01-30 11:00:00,
2013-01-30 04:15:00,28.5,25.0,32.16,ESE,109,5.0,10.0,87,0.00,,,0.01,weatherlink.com 1.10,2013-01-30 11:15:00,
2013-01-30 04:30:00,28.5,25.0,32.16,North,355,7.0,9.0,86,0.00,,,0.00,weatherlink.com 1.10,2013-01-30 11:30:00,
2013-01-30 04:45:00,29.7,25.0,32.17,NE,55,4.0,9.0,83,0.00,,,0.00,weatherlink.com 1.10,2013-01-30 11:45:00,
2013-01-30 05:00:00,28.7,25.0,32.18,West,265,4.0,10.0,85,0.00,,,0.00,weatherlink.com 1.10,2013-01-30 12:00:00,
2013-01-30 05:15:00,29.7,25.0,32.17,West,281,22.0,34.0,83,0.00,,,0.00,weatherlink.com 1.10,2013-01-30 12:15:00,
2013-01-30 05:30:00,30.8,25.0,32.17,WNW,283,20.0,26.0,80,0.00,,,0.00,weatherlink.com 1.10,2013-01-30 12:30:00,
2013-01-30 05:45:00,30.7,26.0,32.18,NW,307,13.0,29.0,81,0.00,,,0.00,weatherlink.com 1.10,2013-01-30 12:45:00,
2013-01-30 06:00:00,29.7,25.0,32.17,NW,323,20.0,22.0,84,0.00,,,0.00,weatherlink.com 1.10,2013-01-30 13:00:00,
2013-01-30 06:15:00,29.5,26.0,32.18,NW,311,14.0,24.0,85,0.00,,,0.00,weatherlink.com 1.10,2013-01-30 13:15:00,
2013-01-30 06:30:00,29.3,26.0,32.18,WNW,296,23.0,27.0,86,0.00,,,0.00,weatherlink.com 1.10,2013-01-30 13:30:00,
2013-01-30 06:45:00,29.6,26.0,32.17,WNW,296,15.0,30.0,86,0.00,,,0.00,weatherlink.com 1.10,2013-01-30 13:45:00,
2013-01-30 07:00:00,30.5,26.0,32.18,WNW,298,25.0,32.0,82,0.00,,,0.00,weatherlink.com 1.10,2013-01-30 14:00:00,
2013-01-30 07:15:00,30.8,26.0,32.18,NW,309,18.0,37.0,81,0.00,,,0.00,weatherlink.com 1.10,2013-01-30 14:15:00,
2013-01-30 07:30:00,30.3,25.0,32.16,WNW,296,11.0,23.0,82,0.00,,,0.00,weatherlink.com 1.10,2013-01-30 14:30:00,
2013-01-30 07:45:00,30.8,25.0,32.16,WSW,253,4.0,24.0,80,0.00,,,0.00,weatherlink.com 1.10,2013-01-30 14:45:00,
2013-01-30 08:00:00,30.8,25.0,32.17,West,273,13.0,17.0,80,0.00,,,0.00,weatherlink.com 1.10,2013-01-30 15:00:00,
2013-01-30 08:15:00,31.7,26.0,32.17,WNW,295,14.0,27.0,78,0.00,,,0.00,weatherlink.com 1.10,2013-01-30 15:15:00,
2013-01-30 08:30:00,31.0,26.0,32.17,West,281,8.0,20.0,80,0.00,,,0.00,weatherlink.com 1.10,2013-01-30 15:30:00,
2013-01-30 08:45:00,31.2,26.0,32.16,WNW,295,7.0,25.0,80,0.00,,,0.00,weatherlink.com 1.10,2013-01-30 15:45:00,
2013-01-30 09:00:00,30.2,26.0,32.16,WSW,251,2.0,15.0,83,0.00,,,0.00,weatherlink.com 1.10,2013-01-30 16:00:00,
2013-01-30 09:15:00,29.5,26.0,32.18,NW,320,3.0,11.0,85,0.00,,,0.00,weatherlink.com 1.10,2013-01-30 16:15:00,
2013-01-30 09:30:00,31.1,26.0,32.17,WNW,290,18.0,24.0,82,0.00,,,0.00,weatherlink.com 1.10,2013-01-30 16:30:00,
2013-01-30 09:45:00,31.0,26.0,32.16,NW,307,17.0,27.0,82,0.00,,,0.00,weatherlink.com 1.10,2013-01-30 16:45:00,
2013-01-30 10:00:00,30.8,26.0,32.16,WNW,303,16.0,30.0,83,0.00,,,0.00,weatherlink.com 1.10,2013-01-30 17:00:00,
2013-01-30 10:15:00,32.1,26.0,32.15,WNW,294,25.0,37.0,79,0.00,,,0.00,weatherlink.com 1.10,2013-01-30 17:15:00,
2013-01-30 10:30:00,32.0,26.0,32.14,WNW,292,22.0,30.0,79,0.00,,,0.00,weatherlink.com 1.10,2013-01-30 17:30:00,
2013-01-30 10:45:00,32.4,26.0,32.15,NW,311,25.0,34.0,78,0.00,,,0.00,weatherlink.com 1.10,2013-01-30 17:45:00,
2013-01-30 11:00:00,32.5,26.0,32.14,West,279,25.0,31.0,77,0.00,,,0.00,weatherlink.com 1.10,2013-01-30 18:00:00,
2013-01-30 11:15:00,32.7,26.0,32.15,WNW,290,15.0,29.0,76,0.00,,,0.00,weatherlink.com 1.10,2013-01-30 18:15:00,
2013-01-30 11:30:00,32.9,26.0,32.14,WNW,286,15.0,29.0,75,0.00,,,0.00,weatherlink.com 1.10,2013-01-30 18:30:00,
2013-01-30 12:00:00,33.6,26.0,32.14,WNW,292,24.0,30.0,73,0.00,,,0.00,weatherlink.com 1.10,2013-01-30 19:00:00,
2013-01-30 12:15:00,33.9,26.0,32.13,NW,309,24.0,30.0,72,0.00,,,0.00,weatherlink.com 1.10,2013-01-30 19:15:00,
2013-01-30 12:30:00,34.0,26.0,32.13,WNW,284,26.0,30.0,72,0.00,,,0.00,weatherlink.com 1.10,2013-01-30 19:30:00,
2013-01-30 12:45:00,34.3,26.0,32.13,WNW,298,32.0,43.0,73,0.00,,,0.00,weatherlink.com 1.10,2013-01-30 19:45:00,
2013-01-30 13:01:00,34.3,26.0,32.12,WNW,297,29.0,42.0,72,0.00,,,0.00,weatherlink.com 1.10,2013-01-30 20:01:00,
2013-01-30 13:16:00,34.1,27.0,32.13,WNW,302,25.0,42.0,74,0.00,,,0.00,weatherlink.com 1.10,2013-01-30 20:16:00,
2013-01-30 13:31:00,34.4,26.0,32.12,WNW,303,33.0,41.0,72,0.00,,,0.00,weatherlink.com 1.10,2013-01-30 20:31:00,
2013-01-30 13:46:00,34.8,26.0,32.12,West,277,25.0,46.0,70,0.00,,,0.00,weatherlink.com 1.10,2013-01-30 20:46:00,
2013-01-30 14:01:00,35.1,25.0,32.12,WNW,296,29.0,44.0,68,0.00,,,0.00,weatherlink.com 1.10,2013-01-30 21:01:00,
2013-01-30 14:16:00,34.8,26.0,32.12,WNW,285,26.0,47.0,69,0.00,,,0.00,weatherlink.com 1.10,2013-01-30 21:16:00,
2013-01-30 14:31:00,34.5,26.0,32.13,WNW,282,29.0,42.0,71,0.00,,,0.00,weatherlink.com 1.10,2013-01-30 21:31:00,
2013-01-30 14:46:00,33.3,27.0,32.13,WNW,298,44.0,49.0,78,0.00,,,0.00,weatherlink.com 1.10,2013-01-30 21:46:00,
2013-01-30 15:01:00,32.7,28.0,32.13,West,276,27.0,38.0,81,0.00,,,0.00,weatherlink.com 1.10,2013-01-30 22:01:00,
2013-01-30 15:16:00,32.9,27.0,32.14,NW,313,26.0,41.0,80,0.00,,,0.00,weatherlink.com 1.10,2013-01-30 22:16:00,
2013-01-30 15:31:00,33.7,27.0,32.14,WNW,286,25.0,35.0,75,0.00,,,0.00,weatherlink.com 1.10,2013-01-30 22:31:00,
2013-01-30 15:46:00,33.5,27.0,32.14,NW,304,27.0,33.0,76,0.00,,,0.00,weatherlink.com 1.10,2013-01-30 22:46:00,
2013-01-30 16:01:00,32.9,27.0,32.14,WNW,294,17.0,37.0,79,0.00,,,0.00,weatherlink.com 1.10,2013-01-30 23:01:00,
2013-01-30 16:16:00,31.9,28.0,32.15,WNW,300,20.0,37.0,85,0.00,,,0.00,weatherlink.com 1.10,2013-01-30 23:16:00,
2013-01-30 16:31:00,31.3,28.0,32.15,NW,320,29.0,34.0,88,0.00,,,0.00,weatherlink.com 1.10,2013-01-30 23:31:00,
2013-01-30 16:46:00,31.7,28.0,32.15,WNW,288,22.0,41.0,87,0.00,,,0.00,weatherlink.com 1.10,2013-01-30 23:46:00,
2013-01-30 17:01:00,32.6,28.0,32.15,WNW,285,28.0,38.0,83,0.00,,,0.00,weatherlink.com 1.10,2013-01-31 00:01:00,
2013-01-30 17:16:00,32.1,28.0,32.16,NW,304,27.0,35.0,85,0.00,,,0.00,weatherlink.com 1.10,2013-01-31 00:16:00,
2013-01-30 17:31:00,32.0,28.0,32.16,NW,304,24.0,33.0,85,0.00,,,0.00,weatherlink.com 1.10,2013-01-31 00:31:00,
2013-01-30 17:46:00,32.7,28.0,32.16,WNW,284,22.0,35.0,82,0.00,,,0.00,weatherlink.com 1.10,2013-01-31 00:46:00,
2013-01-30 18:01:00,33.1,27.0,32.16,WNW,289,23.0,37.0,79,0.00,,,0.00,weatherlink.com 1.10,2013-01-31 01:01:00,
2013-01-30 18:16:00,32.9,27.0,32.16,WNW,300,24.0,33.0,80,0.00,,,0.00,weatherlink.com 1.10,2013-01-31 01:16:00,
2013-01-30 18:31:00,32.8,28.0,32.18,West,275,21.0,33.0,81,0.00,,,0.00,weatherlink.com 1.10,2013-01-31 01:31:00,
2013-01-30 18:46:00,32.3,28.0,32.17,WNW,285,20.0,25.0,83,0.00,,,0.00,weatherlink.com 1.10,2013-01-31 01:46:00,
2013-01-30 19:01:00,32.4,28.0,32.18,NNW,346,15.0,23.0,83,0.00,,,0.00,weatherlink.com 1.10,2013-01-31 02:01:00,
2013-01-30 19:16:00,32.7,28.0,32.18,WNW,299,16.0,29.0,82,0.00,,,0.00,weatherlink.com 1.10,2013-01-31 02:16:00,
2013-01-30 19:31:00,32.7,28.0,32.17,NW,318,25.0,28.0,82,0.00,,,0.00,weatherlink.com 1.10,2013-01-31 02:31:00,
2013-01-30 19:46:00,32.9,27.0,32.18,WNW,286,25.0,27.0,80,0.00,,,0.00,weatherlink.com 1.10,2013-01-31 02:46:00,
2013-01-30 20:01:00,33.2,27.0,32.16,West,273,21.0,26.0,79,0.00,,,0.00,weatherlink.com 1.10,2013-01-31 03:01:00,
2013-01-30 20:16:00,33.9,27.0,32.16,WNW,287,24.0,30.0,76,0.00,,,0.00,weatherlink.com 1.10,2013-01-31 03:16:00,
2013-01-30 20:31:00,34.1,27.0,32.17,WNW,300,14.0,34.0,75,0.00,,,0.00,weatherlink.com 1.10,2013-01-31 03:31:00,
2013-01-30 20:46:00,34.1,27.0,32.17,WNW,294,20.0,34.0,75,0.00,,,0.00,weatherlink.com 1.10,2013-01-31 03:46:00,
2013-01-30 21:01:00,-999.0,-99.9,32.17,North,-999,-999.0,-999.0,-999,0.00,,,0.00,weatherlink.com 1.10,2013-01-31 04:01:00,
2013-01-30 21:16:00,-999.0,-99.9,32.16,North,-999,-999.0,-999.0,-999,0.00,,,0.00,weatherlink.com 1.10,2013-01-31 04:16:00,
2013-01-30 21:31:00,-999.0,-99.9,32.16,North,-999,-999.0,-999.0,-999,0.00,,,0.00,weatherlink.com 1.10,2013-01-31 04:31:00,
2013-01-30 21:46:00,-999.0,-99.9,32.16,North,-999,-999.0,-999.0,-999,0.00,,,0.00,weatherlink.com 1.10,2013-01-31 04:46:00,
2013-01-30 22:01:00,-999.0,-99.9,32.16,North,-999,-999.0,-999.0,-999,0.00,,,0.00,weatherlink.com 1.10,2013-01-31 05:01:00,
2013-01-30 22:16:00,-999.0,-99.9,32.16,North,-999,-999.0,-999.0,-999,0.00,,,0.00,weatherlink.com 1.10,2013-01-31 05:16:00,
2013-01-30 22:31:00,-999.0,-99.9,32.16,North,-999,-999.0,-999.0,-999,0.00,,,0.00,weatherlink.com 1.10,2013-01-31 05:31:00,
2013-01-30 22:46:00,-999.0,-99.9,32.16,North,-999,-999.0,-999.0,-999,0.00,,,0.00,weatherlink.com 1.10,2013-01-31 05:46:00,
2013-01-30 23:02:00,-999.0,-99.9,32.16,North,-999,-999.0,-999.0,-999,0.00,,,0.00,weatherlink.com 1.10,2013-01-31 06:02:00,
2013-01-30 23:17:00,-999.0,-99.9,32.16,North,-999,-999.0,-999.0,-999,0.00,,,0.00,weatherlink.com 1.10,2013-01-31 06:17:00,
2013-01-30 23:32:00,-999.0,-99.9,32.16,North,-999,-999.0,-999.0,-999,0.00,,,0.00,weatherlink.com 1.10,2013-01-31 06:32:00,
2013-01-30 23:47:00,-999.0,-99.9,32.16,North,-999,-999.0,-999.0,-999,0.00,,,0.00,weatherlink.com 1.10,2013-01-31 06:47:00,